SPZNA EPKK-EPKK

Flight info

Callsign SPZNA
Flight time 0h 20m
Altitude 2000
Route EPKK/25 DCT
Aircraft PA24/L-SDGRY/S

Departure

Time 2026-05-07 18:35
Airport Kraków John Paul II International Airport (EPKK)

Arrival

Time 2026-05-07 18:55
Airport Kraków John Paul II International Airport (EPKK)
Time Latitude Longitude Altitude Speed Heading
2026-05-07 18:28 50.07771 19.80291 794 ft 0 kts 79°
2026-05-07 18:29 50.07773 19.80306 794 ft 7 kts 75°
2026-05-07 18:29 50.07817 19.80345 794 ft 7 kts 351°
2026-05-07 18:29 50.07854 19.80333 795 ft 0 kts 348°
2026-05-07 18:32 50.07854 19.80334 795 ft 0 kts 348°
2026-05-07 18:33 50.07906 19.80315 794 ft 16 kts 347°
2026-05-07 18:33 50.08013 19.80240 794 ft 17 kts 281°
2026-05-07 18:33 50.08011 19.80188 795 ft 0 kts 257°
2026-05-07 18:34 50.07973 19.79938 795 ft 64 kts 254°
2026-05-07 18:35 50.07846 19.79029 930 ft 97 kts 252°
2026-05-07 18:35 50.07684 19.78022 1332 ft 95 kts 253°
2026-05-07 18:35 50.07520 19.76981 1569 ft 99 kts 253°
2026-05-07 18:35 50.07516 19.75938 1767 ft 105 kts 297°
2026-05-07 18:36 50.08164 19.75416 1902 ft 112 kts 347°
2026-05-07 18:36 50.08868 19.75227 2030 ft 99 kts 348°
2026-05-07 18:36 50.09486 19.75595 1969 ft 106 kts 59°
2026-05-07 18:36 50.09647 19.76755 1915 ft 112 kts 80°
2026-05-07 18:37 50.09949 19.77826 1952 ft 108 kts 41°
2026-05-07 18:37 50.10633 19.78263 1932 ft 108 kts
2026-05-07 18:37 50.11359 19.78397 1960 ft 103 kts 11°
2026-05-07 18:37 50.12078 19.78561 1956 ft 104 kts
2026-05-07 18:38 50.12577 19.79261 1933 ft 106 kts 79°
2026-05-07 18:38 50.12217 19.80201 1827 ft 113 kts 163°
2026-05-07 18:38 50.11568 19.79756 1818 ft 107 kts 245°
2026-05-07 18:38 50.11412 19.78673 1863 ft 102 kts 259°
2026-05-07 18:39 50.11284 19.77583 1864 ft 103 kts 260°
2026-05-07 18:39 50.11160 19.76496 1895 ft 99 kts 260°
2026-05-07 18:39 50.11036 19.75449 1908 ft 100 kts 260°
2026-05-07 18:39 50.11219 19.74495 1919 ft 99 kts 323°
2026-05-07 18:40 50.11858 19.74539 1908 ft 103 kts 41°
2026-05-07 18:40 50.12068 19.75618 1852 ft 111 kts 83°
2026-05-07 18:40 50.12128 19.76777 1916 ft 105 kts 86°
2026-05-07 18:40 50.12180 19.77897 1942 ft 104 kts 81°
2026-05-07 18:41 50.12241 19.78997 1955 ft 103 kts 87°
2026-05-07 18:41 50.12095 19.80064 1921 ft 106 kts 135°
2026-05-07 18:41 50.11408 19.80202 1932 ft 103 kts 210°
2026-05-07 18:41 50.11072 19.79274 1929 ft 101 kts 260°
2026-05-07 18:42 50.10956 19.78216 1934 ft 102 kts 262°
2026-05-07 18:42 50.10856 19.77120 1940 ft 101 kts 264°
2026-05-07 18:42 50.10805 19.76029 1939 ft 102 kts 272°
2026-05-07 18:42 50.11160 19.75146 1907 ft 105 kts 336°
2026-05-07 18:43 50.11845 19.75256 1951 ft 102 kts 31°
2026-05-07 18:43 50.12207 19.76227 1859 ft 113 kts 82°
2026-05-07 18:43 50.12272 19.77413 1924 ft 105 kts 85°
2026-05-07 18:43 50.12308 19.78550 1919 ft 107 kts 87°
2026-05-07 18:44 50.12323 19.79700 1933 ft 105 kts 93°
2026-05-07 18:44 50.11964 19.80608 1922 ft 105 kts 163°
2026-05-07 18:44 50.11341 19.80213 1930 ft 101 kts 239°
2026-05-07 18:44 50.11193 19.79129 1891 ft 103 kts 262°
2026-05-07 18:45 50.11084 19.78046 1924 ft 100 kts 262°
2026-05-07 18:45 50.10983 19.76970 1937 ft 100 kts 263°
2026-05-07 18:45 50.10888 19.75899 1944 ft 101 kts 263°
2026-05-07 18:45 50.10892 19.74817 1905 ft 103 kts 294°
2026-05-07 18:46 50.11499 19.74242 1809 ft 113 kts
2026-05-07 18:46 50.12042 19.75016 1770 ft 113 kts 79°
2026-05-07 18:46 50.12107 19.76198 1842 ft 105 kts 86°
2026-05-07 18:46 50.12165 19.77335 1834 ft 107 kts 85°
2026-05-07 18:47 50.12203 19.78477 1858 ft 105 kts 88°
2026-05-07 18:47 50.12255 19.79619 1842 ft 106 kts 87°
2026-05-07 18:47 50.11839 19.80527 1751 ft 110 kts 165°
2026-05-07 18:47 50.11203 19.80091 1750 ft 106 kts 240°
2026-05-07 18:48 50.11092 19.78967 1744 ft 105 kts 264°
2026-05-07 18:48 50.11024 19.77870 1788 ft 102 kts 263°
2026-05-07 18:48 50.10945 19.76766 1784 ft 102 kts 263°
2026-05-07 18:48 50.10870 19.75674 1814 ft 100 kts 273°
2026-05-07 18:49 50.11308 19.74936 1760 ft 106 kts 356°
2026-05-07 18:49 50.11886 19.75512 1764 ft 105 kts 66°
2026-05-07 18:49 50.11968 19.76667 1754 ft 106 kts 87°
2026-05-07 18:49 50.11990 19.77779 1803 ft 102 kts 88°
2026-05-07 18:50 50.11991 19.78866 1826 ft 102 kts 103°
2026-05-07 18:50 50.11431 19.79400 1775 ft 106 kts 178°
2026-05-07 18:50 50.10729 19.79634 1748 ft 107 kts 140°
2026-05-07 18:50 50.10520 19.80684 1713 ft 110 kts 79°
2026-05-07 18:51 50.10631 19.81851 1727 ft 107 kts 84°
2026-05-07 18:51 50.10732 19.83010 1720 ft 108 kts 82°
2026-05-07 18:51 50.10847 19.84148 1735 ft 106 kts 82°
2026-05-07 18:51 50.10952 19.85284 1734 ft 106 kts 83°
2026-05-07 18:52 50.11045 19.86415 1743 ft 105 kts 83°
2026-05-07 18:52 50.11109 19.87550 1727 ft 107 kts 100°
2026-05-07 18:52 50.10553 19.88233 1631 ft 110 kts 175°
2026-05-07 18:52 50.09847 19.88311 1749 ft 98 kts 182°
2026-05-07 18:53 50.09270 19.87734 1574 ft 114 kts 248°
2026-05-07 18:53 50.09008 19.86600 1592 ft 108 kts 250°
2026-05-07 18:53 50.08783 19.85488 1543 ft 109 kts 252°
2026-05-07 18:53 50.08578 19.84345 1431 ft 107 kts 255°
2026-05-07 18:54 50.08437 19.83274 1291 ft 95 kts 258°
2026-05-07 18:54 50.08311 19.82328 1170 ft 83 kts 257°
2026-05-07 18:54 50.08195 19.81460 1033 ft 80 kts 256°
2026-05-07 18:54 50.08085 19.80709 914 ft 62 kts 256°
2026-05-07 18:55 50.07996 19.80087 839 ft 59 kts 253°
2026-05-07 18:55 50.07935 19.79661 798 ft 60 kts 255°
2026-05-07 18:55 50.07857 19.79053 795 ft 51 kts 258°
2026-05-07 18:55 50.07778 19.78526 796 ft 48 kts 257°